Location: Hains Lake
(37.8540°N, 99.8578°W)
Time: 04:40:29
(UTC+00:00)

Tiros 1 despin weight - Pass Details

Date: 24 April 2021
Orbit: 593 x 642 km, 48.2° (Epoch: 07 May)

Event Time Altitude Azimuth Distance (km) Brightness Sun altitude
Rises 12:57:10 0° 293° (WNW) 2,909 ? 11.8°
Reaches altitude 10° 12:59:58 10° 309° (NW) 1,992 ? 12.3°
Maximum altitude 13:03:31 22° 0° (N) 1,366 ? 13.0°
Drops below altitude 10° 13:07:02 10° 51° (NE) 1,967 ? 13.7°
Sets 13:09:47 0° 67° (ENE) 2,861 ? 14.3°
